DECAYED

STARLINK-1877, 47162 (Decayed)

Orbit data source: Space-Track

STARLINK-1877, 47162 was a payload satellite owned by SpaceX/Seattle (US) in LEO that was launched on Wed, 25 Nov 2020 UTC via an FALCON 9 launch vehicle from the Air Force Eastern Test Range (AFETR). Payload-class satellites include a variety of spacecraft equipped with specific instruments for various scientific and technological missions. These include communications satellites like Starlink; space stations such as the ISS; scientific satellites like the Hubble; Earth observation satellites from companies like Planet Labs, Umbra, and HawkEye 360; GPS; miniature CubeSats for education and research; and military/defense satellites.

Not visible in the next 10 days
Identifier
47162, 2020-088AS
Orbit
Decayed
Country
Flag of USUS
Related business
Manufacturer
SpaceX/Seattle
Mission
Decayed Commercial Communications
Bus & Motor
STARLINK, Unknown motor
Mass
260 kg wet, ~248 kg dry
Launch date (UTC)
2020-11-25 (6 years ago)
Launch vehicle
FALCON 9
Launch site
Air Force Eastern Test Range (AFETR)
Object type
Payload
Rocket body
Debris
Shape & HBR
Box + 1 Pan, 10.1 m
Radar Cross Section
13.562 m², Large (>1 m²)

Expand to show TLE details & history
Last TLE update: 1 year ago

TLE from 1 year ago
0 STARLINK-1877
1 47162U 20088AS  25172.38203523  .19247656  12691-4  28416-3 0  9998
2 47162  53.0171 314.6675 0011355 304.4604 141.9010 16.47833997253820
Epoch: 2025-06-21T09:10Z
TLE epoch observation values (Epoch: 2025-06-21T09:10:07.843Z)
Latitude
53.02954°
Longitude
-8.59574°
Altitude
157.314 km
Speed
7.815 km/s
True Right ascension
02h 35m 02s
True Declination
52° 50' 56"
Sunlit
Object was in daylight at epoch
Visualization orbit readout
Latitude
Unknown
Longitude
Unknown
Altitude
Unknown
Speed
Unknown
Apparent Right ascension
Unknown
Apparent Declination
Unknown
Sunlit
N/A
Visualization observer readout
Local Sidereal Time
23:08:44
Azimuth
Unknown
Elevation
Unknown
Doppler factor
Unknown
Orbital elements
Apogee altitude
152.746 km
Perigee altitude
137.931 km
Semi-major axis
6,523.476 km
Eccentricity
0.00114
Inclination
53.0171°
RAAN
314.6675°
Arg. of periapsis
304.4604°
True anomaly
141.9812°
Mean anomaly
141.901°
Eccentric anomaly
141.94111°
Mean motion
4.11931 °/min
Orbital period
87.39 mins
BSTAR
0.00028416
Loading maneuver chart data...
Computing Atmospheric mass density...

Documentation

Showing up to 5 results
|